DW6157 Weather Reports


Display with metric or nautical units.
time (UTC)temp
F
wind
direction
speed
MPH
gust
MPH
rain 1hr
in
rain 24hr
in
rain mn
in
humidity
%
barometer
mb
20260508181537 55 227 2.0 6.0 0.00 0.00 0.00 76 1023.0
20260508180014 55 214 3.0 5.0 0.00 0.00 0.00 75 1022.9
20260508174517 55 210 3.0 5.0 0.00 0.00 0.00 70 1022.8
20260508173011 57 210 2.0 6.0 0.00 0.00 0.00 67 1022.8
20260508171511 58 210 3.0 6.0 0.00 0.00 0.00 66 1022.7
20260508170010 58 220 3.0 8.0 0.00 0.00 0.00 65 1022.8
20260508164513 59 200 5.0 9.0 0.00 0.00 0.00 62 1022.8
20260508163008 59 200 3.0 9.0 0.00 0.00 0.00 59 1022.8
20260508161509 59 210 4.0 8.0 0.00 0.00 0.00 58 1022.8
20260508160013 59 210 4.0 8.0 0.00 0.00 0.00 56 1022.8
20260508154511 60 210 4.0 8.0 0.00 0.00 0.00 57 1022.8
20260508153006 60 200 4.0 9.0 0.00 0.00 0.00 57 1022.8
20260508151505 61 230 4.0 8.0 0.00 0.00 0.00 58 1022.9
20260508150005 61 218 4.0 8.0 0.00 0.00 0.00 58 1023.0
20260508144504 61 214 4.0 10.0 0.00 0.00 0.00 61 1023.1
20260508143002 62 215 5.0 10.0 0.00 0.00 0.00 57 1023.1
20260508141501 62 224 4.0 11.0 0.00 0.00 0.00 57 1023.1
20260508140115 62 216 2.0 11.0 0.00 0.00 0.00 52 1023.1
20260508134558 61 200 4.0 11.0 0.00 0.00 0.00 59 1023.2
20260508133101 61 210 3.0 9.0 0.00 0.00 0.00 59 1023.3
20260508131603 61 200 5.0 9.0 0.00 0.00 0.00 63 1023.4
20260508130054 61 232 4.0 9.0 0.00 0.00 0.00 64 1023.5
20260508124553 60 205 5.0 10.0 0.00 0.00 0.00 63 1023.5
20260508123051 60 226 7.0 11.0 0.00 0.00 0.00 64 1023.5
20260508121558 59 196 5.0 10.0 0.00 0.00 0.00 64 1023.5
20260508120057 59 200 5.0 11.0 0.00 0.00 0.00 67 1023.5
20260508114549 60 245 5.0 12.0 0.00 0.00 0.00 65 1023.5
20260508113055 60 216 4.0 9.0 0.00 0.00 0.00 70 1023.5
20260508111556 59 215 6.0 11.0 0.00 0.00 0.00 69 1023.4
20260508110057 60 227 4.0 8.0 0.00 0.00 0.00 70 1023.3
20260508104541 59 215 4.0 9.0 0.00 0.00 0.00 71 1023.4
20260508103050 59 220 4.0 11.0 0.00 0.00 0.00 71 1023.3
20260508101542 59 210 3.0 10.0 0.00 0.00 0.00 73 1023.2
20260508100039 59 205 6.0 10.0 0.00 0.00 0.00 72 1023.2
20260508094551 59 227 6.0 10.0 0.00 0.00 0.00 71 1023.1
20260508093034 59 214 6.0 11.0 0.00 0.00 0.00 70 1023.1
20260508091530 59 205 5.0 11.0 0.00 0.00 0.00 70 1023.2
20260508090035 59 185 4.0 11.0 0.00 0.00 0.00 70 1023.2
20260508084527 58 210 3.0 11.0 0.00 0.00 0.00 69 1023.2
20260508083025 57 221 8.0 12.0 0.00 0.00 0.00 67 1023.1
20260508081525 57 200 6.0 14.0 0.00 0.00 0.00 63 1022.9
20260508080032 59 214 5.0 9.0 0.00 0.00 0.00 60 1022.9
20260508074522 58 223 6.0 11.0 0.00 0.00 0.00 59 1022.8
20260508073026 57 137 1.0 6.0 0.00 0.00 0.00 60 1022.6
20260508071518 56 180 2.0 6.0 0.00 0.00 0.00 61 1022.6
20260508070011 55 142 4.0 8.0 0.00 0.00 0.00 65 1022.5
20260508064507 52 142 2.0 5.0 0.00 0.00 0.00 76 1022.4
20260508063004 50 110 0.0 0.0 0.00 0.00 0.00 72 1022.4
20260508061602 50 333 0.0 0.0 0.00 0.00 0.00 74 1022.3
20260508060057 47 333 0.0 0.0 0.00 0.00 0.00 71 1022.2
20260508054602 46 333 0.0 0.0 0.00 0.00 0.00 71 1022.1
20260508053051 45 331 0.0 0.0 0.00 0.00 0.00 72 1022.0
20260508051552 42 326 0.0 0.0 0.00 0.00 0.00 75 1021.9
20260508050041 40 326 0.0 0.0 0.00 0.00 0.00 77 1021.7
20260508044539 38 326 0.0 0.0 0.00 0.00 0.00 80 1021.6
20260508043041 36 326 0.0 3.0 0.00 0.00 0.00 81 1021.6
20260508041536 35 252 0.0 0.0 0.00 0.00 0.00 85 1021.6
20260508040039 33 252 0.0 0.0 0.00 0.00 0.00 87 1021.6
20260508034534 32 252 0.0 0.0 0.00 0.00 0.00 87 1021.4
20260508033033 32 252 0.0 0.0 0.00 0.00 0.00 87 1021.3
20260508031533 32 252 0.0 0.0 0.00 0.00 0.00 87 1021.4
20260508030033 32 252 0.0 0.0 0.00 0.00 0.00 87 1021.3
20260508024541 32 252 0.0 0.0 0.00 0.00 0.00 87 1021.2
20260508023030 32 252 0.0 0.0 0.00 0.00 0.00 86 1021.1
20260508021527 31 252 0.0 0.0 0.00 0.00 0.00 85 1021.1
20260508020025 32 252 0.0 0.0 0.00 0.00 0.00 85 1020.9
20260508014541 32 252 0.0 0.0 0.00 0.00 0.00 86 1021.0
20260508013022 32 252 0.0 0.0 0.00 0.00 0.00 85 1020.9
20260508011522 32 252 0.0 0.0 0.00 0.00 0.00 84 1020.8
20260508010027 32 252 0.0 1.0 0.00 0.00 0.00 84 1020.7
20260508004523 33 252 0.0 0.0 0.00 0.00 0.00 82 1020.7
20260508003041 33 252 0.0 0.0 0.00 0.00 0.00 82 1020.6
20260508001514 34 252 0.0 0.0 0.00 0.00 0.00 81 1020.4
20260508000011 35 252 0.0 0.0 0.00 0.00 0.00 79 1020.3
20260507234508 35 252 0.0 0.0 0.00 0.00 0.00 78 1020.2
20260507233006 36 252 0.0 0.0 0.00 0.00 0.00 77 1020.1
20260507231505 36 252 0.0 0.0 0.00 0.00 0.00 77 1020.0
20260507230004 36 252 0.0 0.0 0.00 0.00 0.00 75 1019.9
20260507224620 37 252 0.0 0.0 0.00 0.00 0.00 74 1019.9
20260507223101 37 252 0.0 0.0 0.00 0.00 0.00 73 1019.9
20260507221557 38 252 0.0 0.0 0.00 0.00 0.00 73 1019.7
20260507220054 38 252 0.0 0.0 0.00 0.00 0.00 72 1019.7
20260507214554 39 252 0.0 0.0 0.00 0.00 0.00 70 1019.7
20260507213051 41 252 0.0 0.0 0.00 0.00 0.00 66 1019.6
20260507211606 41 252 0.0 0.0 0.00 0.00 0.00 66 1019.4
20260507210050 42 252 0.0 0.0 0.00 0.00 0.00 65 1019.3
20260507204550 42 252 0.0 0.0 0.00 0.00 0.00 65 1019.1
20260507203045 44 252 0.0 0.0 0.00 0.00 0.00 62 1019.0
20260507201552 45 252 0.0 0.0 0.00 0.00 0.00 62 1018.9
20260507200054 46 252 0.0 0.0 0.00 0.00 0.00 61 1018.9
20260507194544 46 252 0.0 0.0 0.00 0.00 0.00 57 1018.9
20260507193042 48 252 0.0 0.0 0.00 0.00 0.00 56 1018.6
20260507191548 49 252 0.0 0.0 0.00 0.00 0.00 52 1018.5
20260507190039 49 250 0.0 2.0 0.00 0.00 0.00 49 1018.3
20260507184537 50 249 0.0 3.0 0.00 0.00 0.00 45 1018.2
20260507183036 51 226 1.0 5.0 0.00 0.00 0.00 42 1018.1